Flag for Brazil Weather past 2 weeks in Caruaru, Pernambuco, Brazil

Now
70 °F

Light rain. Overcast.


Feels Like: 70 °F
Forecast: 65 / 74 °F
Wind: 10 mph from Southwest

Location: Recife Aeroporto

Current Time: Aug 21, 2014 at 10:03:47 PM

Latest Report: Aug 21, 2014 at 9:00 PM


Visibility: N/A

Pressure: 30.07 "Hg

Humidity: 100%

Dew point: 70 °F

Location of CaruaruLocation

Historic Weather in Caruaru — Graph

°F

Caruaru temperature yesterday

Maximum temperature yesterday: 79 °F (at 2:00 PM)
Minimum temperature yesterday: 70 °F (at 4:00 AM)
Average temperature yesterday: 73 °F

Past Weeks' High & Low Weather Summary

 TemperatureHumidityPressure
High82 °F (Aug 7, 11:00 AM)100% (Aug 9, 7:00 AM)30.09 "Hg (Aug 9, 7:00 AM)
Low68 °F (Aug 19, 6:00 AM)24% (Aug 12, 9:00 AM)29.95 "Hg (Aug 13, 3:00 PM)
Average76 °F82%30.03 "Hg
* Reported Aug 6 9:00 PM — Aug 21 9:00 PM, Caruaru, Weather by CustomWeather, © 2014

Note: Actual official high and low records may vary slightly from our data, if they occured in-between our weather recording intervals... More about our weather records

Advertising

Caruaru weather history for previous 24 hours

 ConditionsComfort  
Time TempWeatherWind HumidityBarometerVisibility
9:00 PM
Aug 21
70 °FLight rain. Overcast.10 mph100%30.07 "HgN/A
8:00 PM70 °FMostly cloudy.7 mph100%30.07 "HgN/A
7:00 PM72 °FOvercast.10 mph94%30.04 "HgN/A
6:00 PM72 °FPassing clouds.9 mph94%30.04 "HgN/A
5:00 PM73 °FLight rain. Partly sunny.9 mph94%30.01 "HgN/A
4:00 PM75 °FBroken clouds.8 mph89%30.01 "HgN/A
3:00 PM73 °FLight rain. Mostly cloudy.10 mph94%30.01 "HgN/A
2:00 PM73 °FScattered showers. Mostly cloudy.5 mph94%30.01 "HgN/A
1:05 PM72 °FRain. Cloudy.16 mph94%30.04 "Hg1 mi
1:00 PM73 °FLight rain. Mostly cloudy.14 mph94%30.04 "Hg2 mi
12:00 PM77 °FBroken clouds.9 mph94%30.07 "HgN/A
11:00 AM73 °FLight rain. Partly sunny.16 mph94%30.07 "Hg3 mi
10:00 AM73 °FRain. Broken clouds.6 mph94%30.09 "Hg2 mi
9:00 AM73 °FLight rain. Broken clouds.10 mph94%30.09 "Hg2 mi
8:00 AM73 °FScattered showers. Broken clouds.8 mph94%30.07 "Hg5 mi
7:00 AM72 °FScattered showers. Partly sunny.6 mph94%30.07 "HgN/A
6:00 AM72 °FLight rain. Fog.15 mph94%N/A3 mi
5:00 AM72 °FScattered showers. Passing clouds.3 mph94%30.04 "HgN/A
4:00 AM72 °FPassing clouds.6 mph94%30.04 "HgN/A
3:00 AM70 °FLight rain. Passing clouds.6 mph94%30.04 "Hg3 mi
2:00 AM77 °FScattered showers. Partly cloudy.7 mph79%30.04 "HgN/A
1:00 AM72 °FLight rain. Passing clouds.6 mph94%30.04 "Hg4 mi
12:00 AM72 °FLight rain. Passing clouds.6 mph94%30.07 "Hg4 mi
11:00 PM
Aug 20
72 °FScattered showers. Passing clouds.6 mph94%30.09 "HgN/A
10:00 PM73 °FLight rain. Passing clouds.8 mph89%30.09 "Hg4 mi
Weather by CustomWeather, © 2014

See weather overviewHow to use our weather pages